AEE32H LGAV-LGIR

Flight info

Callsign AEE32H
Flight time 0h 33m
Altitude 27000
Route KEA UL607 GIVIS T514 XAVIS
Aircraft A320/M-SDE3FGHIRWY/LB1

Departure

Time 2026-05-07 15:52
Airport Athens Eleftherios Venizelos International Airport (LGAV)

Arrival

Time 2026-05-07 16:25
Airport Heraklion International Nikos Kazantzakis Airport (LGIR)
Time Latitude Longitude Altitude Speed Heading
2026-05-07 15:19 37.94027 23.95294 301 ft 0 kts 37°
2026-05-07 15:40 37.94010 23.95276 301 ft 4 kts 43°
2026-05-07 15:40 37.93991 23.95252 301 ft 4 kts 53°
2026-05-07 15:41 37.93978 23.95223 302 ft 4 kts 82°
2026-05-07 15:41 37.93980 23.95201 301 ft 1 kts 127°
2026-05-07 15:41 37.93982 23.95197 301 ft 0 kts 127°
2026-05-07 15:44 37.93973 23.95212 303 ft 5 kts 127°
2026-05-07 15:44 37.93946 23.95258 300 ft 8 kts 127°
2026-05-07 15:44 37.93905 23.95330 300 ft 12 kts 115°
2026-05-07 15:44 37.93950 23.95424 301 ft 15 kts 35°
2026-05-07 15:45 37.94044 23.95512 300 ft 18 kts 36°
2026-05-07 15:45 37.94153 23.95616 299 ft 21 kts 36°
2026-05-07 15:45 37.94276 23.95732 299 ft 23 kts 36°
2026-05-07 15:45 37.94365 23.95862 300 ft 18 kts 96°
2026-05-07 15:46 37.94495 23.96080 300 ft 19 kts 38°
2026-05-07 15:46 37.94608 23.96191 300 ft 22 kts 35°
2026-05-07 15:46 37.94658 23.96282 299 ft 10 kts 102°
2026-05-07 15:47 37.94587 23.96312 295 ft 15 kts 197°
2026-05-07 15:47 37.94493 23.96330 293 ft 7 kts 147°
2026-05-07 15:47 37.94454 23.96322 291 ft 2 kts 217°
2026-05-07 15:47 37.94450 23.96319 290 ft 0 kts 216°
2026-05-07 15:51 37.94382 23.96254 287 ft 42 kts 217°
2026-05-07 15:51 37.93939 23.95834 280 ft 113 kts 217°
2026-05-07 15:52 37.93174 23.95108 383 ft 153 kts 217°
2026-05-07 15:52 37.92217 23.94361 855 ft 171 kts 207°
2026-05-07 15:52 37.91108 23.93671 1475 ft 183 kts 205°
2026-05-07 15:52 37.89943 23.92948 2212 ft 189 kts 206°
2026-05-07 15:53 37.88727 23.92160 2824 ft 204 kts 207°
2026-05-07 15:53 37.87424 23.91279 3442 ft 221 kts 209°
2026-05-07 15:53 37.86018 23.90297 4063 ft 240 kts 209°
2026-05-07 15:53 37.84481 23.89284 4759 ft 259 kts 201°
2026-05-07 15:54 37.82650 23.88927 5455 ft 276 kts 176°
2026-05-07 15:54 37.80827 23.89690 6428 ft 282 kts 147°
2026-05-07 15:54 37.79291 23.91250 7354 ft 286 kts 141°
2026-05-07 15:54 37.77761 23.92871 8310 ft 289 kts 141°
2026-05-07 15:55 37.76219 23.94483 9224 ft 294 kts 141°
2026-05-07 15:55 37.74628 23.96130 10108 ft 298 kts 142°
2026-05-07 15:55 37.72974 23.97830 10595 ft 318 kts 142°
2026-05-07 15:55 37.71194 23.99650 10866 ft 341 kts 142°
2026-05-07 15:56 37.69300 24.01584 11332 ft 356 kts 142°
2026-05-07 15:56 37.67360 24.03567 12030 ft 362 kts 142°
2026-05-07 15:56 37.65383 24.05586 12751 ft 368 kts 143°
2026-05-07 15:56 37.63381 24.07630 13477 ft 373 kts 143°
2026-05-07 15:57 37.61350 24.09703 14162 ft 378 kts 143°
2026-05-07 15:57 37.59291 24.11801 14792 ft 383 kts 143°
2026-05-07 15:57 37.57206 24.13924 15416 ft 388 kts 143°
2026-05-07 15:57 37.55097 24.16074 16037 ft 392 kts 143°
2026-05-07 15:58 37.52963 24.18248 16658 ft 397 kts 143°
2026-05-07 15:58 37.50804 24.20444 17281 ft 401 kts 144°
2026-05-07 15:58 37.48621 24.22661 17923 ft 406 kts 144°
2026-05-07 15:58 37.46410 24.24903 18556 ft 410 kts 144°
2026-05-07 15:59 37.44176 24.27167 19148 ft 414 kts 144°
2026-05-07 15:59 37.41920 24.29456 19761 ft 418 kts 143°
2026-05-07 15:59 37.39650 24.31761 20395 ft 422 kts 143°
2026-05-07 15:59 37.37354 24.34088 21001 ft 425 kts 143°
2026-05-07 16:00 37.35822 24.35638 21401 ft 428 kts 143°
2026-05-07 16:00 37.32704 24.38785 22192 ft 432 kts 143°
2026-05-07 16:00 37.30353 24.41159 22752 ft 435 kts 143°
2026-05-07 16:00 37.28786 24.42740 23108 ft 438 kts 142°
2026-05-07 16:01 37.26396 24.45146 23642 ft 441 kts 142°
2026-05-07 16:01 37.23991 24.47565 24076 ft 445 kts 142°
2026-05-07 16:01 37.21570 24.50000 24637 ft 449 kts 141°
2026-05-07 16:01 37.19112 24.52474 24973 ft 455 kts 141°
2026-05-07 16:02 37.16631 24.54969 25376 ft 459 kts 141°
2026-05-07 16:02 37.14136 24.57481 25616 ft 462 kts 141°
2026-05-07 16:02 37.11625 24.60004 26052 ft 464 kts 143°
2026-05-07 16:02 37.09097 24.62535 26447 ft 467 kts 143°
2026-05-07 16:03 37.06546 24.65084 26831 ft 470 kts 143°
2026-05-07 16:03 37.03982 24.67641 27081 ft 473 kts 143°
2026-05-07 16:03 37.01400 24.70217 27136 ft 476 kts 143°
2026-05-07 16:03 36.98807 24.72810 27132 ft 477 kts 143°
2026-05-07 16:04 36.96215 24.75401 27136 ft 478 kts 143°
2026-05-07 16:04 36.93620 24.77993 27135 ft 478 kts 143°
2026-05-07 16:04 36.90932 24.80415 27136 ft 475 kts 150°
2026-05-07 16:04 36.88116 24.82588 27135 ft 475 kts 151°
2026-05-07 16:05 36.85301 24.84758 27137 ft 476 kts 151°
2026-05-07 16:05 36.82490 24.86923 27136 ft 476 kts 151°
2026-05-07 16:05 36.79674 24.89092 27135 ft 476 kts 151°
2026-05-07 16:05 36.76860 24.91266 27137 ft 476 kts 151°
2026-05-07 16:06 36.74046 24.93443 27137 ft 476 kts 151°
2026-05-07 16:06 36.71236 24.95617 27137 ft 476 kts 151°
2026-05-07 16:06 36.68426 24.97788 27146 ft 476 kts 151°
2026-05-07 16:06 36.65611 24.99953 27145 ft 475 kts 151°
2026-05-07 16:07 36.62792 25.02109 27143 ft 475 kts 151°
2026-05-07 16:07 36.59974 25.04260 27143 ft 475 kts 151°
2026-05-07 16:07 36.57153 25.06413 27142 ft 475 kts 151°
2026-05-07 16:07 36.54337 25.08563 27140 ft 475 kts 151°
2026-05-07 16:08 36.51517 25.10717 27138 ft 476 kts 151°
2026-05-07 16:08 36.48702 25.12867 27133 ft 476 kts 151°
2026-05-07 16:08 36.45877 25.15023 27136 ft 476 kts 151°
2026-05-07 16:08 36.43058 25.17173 27132 ft 476 kts 151°
2026-05-07 16:09 36.40239 25.19323 27130 ft 476 kts 151°
2026-05-07 16:09 36.37413 25.21475 27128 ft 476 kts 151°
2026-05-07 16:09 36.34586 25.23623 26910 ft 475 kts 151°
2026-05-07 16:09 36.31778 25.25754 26149 ft 473 kts 150°
2026-05-07 16:10 36.28980 25.27878 25454 ft 470 kts 150°
2026-05-07 16:10 36.26199 25.29986 24754 ft 467 kts 150°
2026-05-07 16:10 36.23433 25.32079 24058 ft 465 kts 150°
2026-05-07 16:10 36.20719 25.34132 23326 ft 462 kts 150°
2026-05-07 16:11 36.17993 25.36195 22657 ft 456 kts 150°
2026-05-07 16:11 36.15307 25.38227 22033 ft 450 kts 150°
2026-05-07 16:11 36.12618 25.40140 21442 ft 443 kts 156°
2026-05-07 16:11 36.09778 25.41525 20877 ft 435 kts 165°
2026-05-07 16:12 36.06917 25.42675 20336 ft 430 kts 165°
2026-05-07 16:12 36.04084 25.43810 19789 ft 426 kts 165°
2026-05-07 16:12 36.01271 25.44937 19232 ft 424 kts 165°
2026-05-07 16:12 35.98477 25.46061 18674 ft 421 kts 165°
2026-05-07 16:13 35.95699 25.47183 18045 ft 420 kts 165°
2026-05-07 16:13 35.92933 25.48295 17453 ft 416 kts 165°
2026-05-07 16:13 35.90187 25.49397 16600 ft 418 kts 164°
2026-05-07 16:13 35.87419 25.50503 15966 ft 416 kts 164°
2026-05-07 16:14 35.84688 25.51597 15432 ft 410 kts 164°
2026-05-07 16:14 35.81994 25.52677 14754 ft 404 kts 164°
2026-05-07 16:14 35.79336 25.53740 13967 ft 399 kts 163°
2026-05-07 16:14 35.76712 25.54790 13033 ft 393 kts 163°
2026-05-07 16:15 35.74132 25.55823 11984 ft 387 kts 163°
2026-05-07 16:15 35.71598 25.56767 11310 ft 369 kts 169°
2026-05-07 16:15 35.69153 25.57056 11137 ft 338 kts 183°
2026-05-07 16:15 35.66917 25.56697 10924 ft 315 kts 196°
2026-05-07 16:16 35.64875 25.55952 10447 ft 307 kts 199°
2026-05-07 16:16 35.62845 25.55174 9931 ft 305 kts 199°
2026-05-07 16:16 35.60831 25.54397 9351 ft 302 kts 198°
2026-05-07 16:16 35.58844 25.53634 8748 ft 298 kts 198°
2026-05-07 16:17 35.56876 25.52880 8116 ft 294 kts 198°
2026-05-07 16:17 35.54930 25.52135 7492 ft 291 kts 198°
2026-05-07 16:17 35.53006 25.51400 6913 ft 288 kts 198°
2026-05-07 16:17 35.51101 25.50673 6306 ft 285 kts 197°
2026-05-07 16:18 35.49219 25.49955 5690 ft 281 kts 198°
2026-05-07 16:18 35.47373 25.49253 5282 ft 270 kts 198°
2026-05-07 16:18 35.45643 25.48599 5157 ft 250 kts 198°
2026-05-07 16:18 35.44049 25.47997 5050 ft 230 kts 198°
2026-05-07 16:19 35.42577 25.47440 4965 ft 215 kts 198°
2026-05-07 16:19 35.41172 25.46908 4862 ft 207 kts 198°
2026-05-07 16:19 35.39815 25.46392 4767 ft 202 kts 198°
2026-05-07 16:19 35.38477 25.45882 4678 ft 201 kts 198°
2026-05-07 16:20 35.37163 25.45312 4608 ft 200 kts 208°
2026-05-07 16:20 35.36088 25.44257 4477 ft 199 kts 230°
2026-05-07 16:20 35.35405 25.42804 4179 ft 196 kts 246°
2026-05-07 16:20 35.34842 25.41300 3915 ft 192 kts 245°
2026-05-07 16:21 35.34281 25.39832 3661 ft 189 kts 245°
2026-05-07 16:21 35.33728 25.38391 3411 ft 185 kts 245°
2026-05-07 16:21 35.33212 25.36985 3202 ft 175 kts 251°
2026-05-07 16:21 35.32944 25.35587 2948 ft 164 kts 260°
2026-05-07 16:22 35.32884 25.34232 2694 ft 155 kts 272°
2026-05-07 16:22 35.32954 25.32966 2464 ft 148 kts 275°
2026-05-07 16:22 35.33047 25.31737 2283 ft 144 kts 276°
2026-05-07 16:22 35.33163 25.30526 2123 ft 143 kts 276°
2026-05-07 16:23 35.33259 25.29321 1914 ft 142 kts 274°
2026-05-07 16:23 35.33344 25.28118 1710 ft 141 kts 275°
2026-05-07 16:23 35.33426 25.26920 1514 ft 141 kts 274°
2026-05-07 16:23 35.33499 25.25722 1297 ft 141 kts 274°
2026-05-07 16:24 35.33556 25.24529 1066 ft 140 kts 275°
2026-05-07 16:24 35.33633 25.23346 814 ft 139 kts 275°
2026-05-07 16:24 35.33690 25.22170 609 ft 139 kts 275°
2026-05-07 16:24 35.33777 25.20996 438 ft 138 kts 276°
2026-05-07 16:25 35.33856 25.19816 268 ft 139 kts 275°
2026-05-07 16:25 35.33935 25.18645 93 ft 131 kts 276°
2026-05-07 16:25 35.34000 25.17696 94 ft 88 kts 274°
2026-05-07 16:25 35.34027 25.17195 90 ft 30 kts 263°
2026-05-07 16:26 35.33975 25.17053 91 ft 14 kts 237°
2026-05-07 16:26 35.33939 25.17088 90 ft 10 kts 93°
2026-05-07 16:26 35.33934 25.17188 91 ft 13 kts 94°
2026-05-07 16:26 35.33930 25.17268 91 ft 15 kts 94°
2026-05-07 16:27 35.33917 25.17453 91 ft 15 kts 96°
2026-05-07 16:27 35.33911 25.17535 94 ft 3 kts 95°
2026-05-07 16:27 35.33908 25.17570 93 ft 5 kts 95°
2026-05-07 16:27 35.33908 25.17576 92 ft 0 kts 95°
2026-05-07 16:28 35.33904 25.17578 92 ft 1 kts 141°
2026-05-07 16:28 35.33899 25.17570 92 ft 2 kts 233°
2026-05-07 16:28 35.33906 25.17524 92 ft 8 kts 270°
2026-05-07 16:28 35.33856 25.17497 94 ft 10 kts 183°
2026-05-07 16:29 35.33781 25.17488 91 ft 9 kts 193°
2026-05-07 16:29 35.33766 25.17443 91 ft 7 kts 276°
2026-05-07 16:29 35.33768 25.17413 93 ft 1 kts 276°
2026-05-07 16:29 35.33769 25.17409 93 ft 0 kts 276°